sat.trackr.live / text

‹ back to catalog

STARLINK-33846

NORAD 63780 · 2025-091F

PAYLOAD ACTIVE UNKNOWN

§ Identity

Operator
Country
US
Launch date
2025-05-02
Launch site
AFETR
Launch vehicle
Mass (kg)
RCS (m²)

Purposes: comms

External: N2YO · Heavens-Above · Gunter

§ Orbital elements

Epoch: 2026-05-24T21:26:53.635776Z

Period
94.27 min
Inclination
42.9999°
Eccentricity
0.0001358
Mean motion
15.27598078 rev/d
Perigee alt
482.1 km
Apogee alt
483.9 km
Semi-major
6,861.1 km
B*
6.8140e-4
RAAN
342.4253°
Arg perigee
273.4912°
Mean anomaly
86.5785°
Rev number
6,060

§ Raw data

STARLINK-338461 63780U 25091F   26144.89367634  .00018546  00000+0  68140-3 0  99992 63780  42.9999 342.4253 0001358 273.4912  86.5785 15.27598078 60609

JSON: /api/v1/satellites/63780 · /tle

For live sub-satellite position, see the globe view (requires WebGL).

§ Visibility from observer

Set your observer location to see the next 7 days of passes ≥ 10°. The values pass through the URL so the page stays shareable.

No JS? Fill the form by hand. The geolocation button needs JavaScript.